Overview Statistics Trail Chart Weather Telemetry Raw packets
 

This is the latest recevied weather packets stored in our database for station/object M0HPP-13. If no packets are shown the sender has not sent any weather packets the latest 10 day(s).

<< 49 50 51 52 53 54 55 >>
Time Temp. Humidity Pressure Rain* Wind** Luminosity Snow
1787859486 14.44° C 99% 1011.6 hPa 0 mm - 2 W/m² -
1787858886 14.44° C 99% 1011.7 hPa 0 mm - 4 W/m² -
1787858286 14.44° C 99% 1011.6 hPa 0 mm - 7 W/m² -
1787857687 14.44° C 99% 1011.7 hPa 0 mm - 10 W/m² -
1787857086 15° C 99% 1011.5 hPa 0 mm - 16 W/m² -
1787856486 15° C 99% 1011.6 hPa 0 mm - 16 W/m² -
1787855886 15° C 99% 1011.6 hPa 0 mm - 25 W/m² -
1787855286 15° C 99% 1011.5 hPa 0 mm - 34 W/m² -
1787854686 15° C 98% 1011.5 hPa 0 mm - 49 W/m² -
1787854086 15.56° C 98% 1011.7 hPa 0 mm - 53 W/m² -
1787853486 15.56° C 97% 1011.7 hPa 0 mm - 53 W/m² -
1787852886 15.56° C 97% 1011.9 hPa 0 mm - 81 W/m² -
1787852286 16.11° C 96% 1011.9 hPa 0 mm - 91 W/m² -
1787851686 16.11° C 96% 1011.9 hPa 0 mm - 119 W/m² -
1787851086 16.11° C 96% 1012.1 hPa 0 mm - 142 W/m² -
1787850486 16.11° C 96% 1012.1 hPa 0 mm - 174 W/m² -
1787849886 15.56° C 97% 1012.1 hPa 0 mm - 185 W/m² -
1787849286 15.56° C 97% 1012.1 hPa 0 mm - 170 W/m² -
1787848686 15.56° C 97% 1012.2 hPa 0 mm - 129 W/m² -
1787848086 16.11° C 96% 1012.3 hPa 0 mm - 204 W/m² -
1787847486 16.11° C 96% 1012.3 hPa 0 mm - 199 W/m² -
1787846886 16.11° C 95% 1012.4 hPa 0 mm - 242 W/m² -
1787846286 16.11° C 96% 1012.4 hPa 0 mm - 258 W/m² -
1787845686 16.11° C 95% 1012.5 hPa 0 mm - 252 W/m² -
1787845086 16.11° C 95% 1012.5 hPa 0 mm - 280 W/m² -

* Rain latest hour (hover to see other rain measurements)
** Current wind speed in m/s (hover to see current wind gust speed)